www.pogodaiklimat.ru

Погода и климат >> Архив погоды >> Аргентина >> Santiago del Estero


ПОГОДА в Santiago del Estero

  • Прогноз погоды в Santiago del Estero
  • Монитор погоды в Santiago del Estero
  • Климат города

АРХИВ ПОГОДЫ в Santiago del Estero

Время (UTC), дата Ветер
(напр.,м/с)
 
Видим.   Явления Облачность Т
(С)
Тd
(С)
f
(%)
Тe
(С)
Тes
(С)
Комфортность P
(гПа)
Po
(гПа)
Тmin
(С)
Tmax
(С)
R
(мм)
R24
(мм)
S
(см)
15 9.07 В 2 12 км 9/0
[Ac As]
+11.2 +4.6 64 +11 +14 1037.1 1012.4
18 9.07 СВ 2 12 км 6/6 1050 м
[Cu hum]
+14.0 +4.6 53 +14 +17 1033.7 1009.0
21 9.07 В 1 12 км 8/0
[Ac und]
+13.4 +3.2 50 +14 +14 1032.3 1007.7
00 10.07 штиль 0 10 км 1/0
[Ac trans]
+9.6 +5.9 78 +9 +9 1032.9 1008.2 +3.2 +14.3
03 10.07 штиль 0 10 км ясно +4.0 +2.0 87 +3 +3 1032.6 1008.0
06 10.07 штиль 0 10 км 3/0
[Ac und]
+2.2 +1.2 93 +1 +1 1031.3 1006.8
09 10.07 штиль 0 10 км ясно +1.0 -0.1 92 -0 -0 1029.6 1005.0
12 10.07 С 2 10 км 9/0
[Ac As]
+4.3 +2.3 87 +2 +2 1030.3 1005.7 +0.4 +9.6
15 10.07 С 4 10 км 9/0
[Ac As]
+10.0 +3.9 66 +7 +9 1029.7 1005.0
18 10.07 С 5 10 км 5/4 900 м
[Sc Ci fib]
+15.8 +2.3 40 +15 +17 1025.1 1000.8
21 10.07 СВ 7 12 км 6/0
[Cs]
+15.4 +2.6 42 +14 +14 1023.1 998.8
00 11.07 СВ 2 10 км ясно +11.3 +3.4 58 +10 +10 1022.4 998.1 +4.3 +16.0
06 11.07 С 2 10 км ясно +6.0 +2.1 76 +4 +4 1020.7 996.7
09 11.07 СВ 2 10 км ясно +4.5 +2.3 86 +2 +2 1019.9 995.8
12 11.07 СВ 4 10 км 9/0
[Cs]
+5.0 +1.5 78 +1 +1 1021.8 997.4 +2.0 +11.3
15 11.07 С 5 12 км 9/0
[Ac As Cs]
+12.2 +3.0 53 +10 +13 1022.4 998.2
18 11.07 С 4 12 км 5/0
[Cs]
+15.8 +3.2 43 +15 +19 1019.9 995.8
21 11.07 СВ 3 12 км 3/0
[Cs]
+16.2 +3.5 43 +16 +16 1019.5 995.4
00 12.07 штиль 0 10 км ясно +7.4 +3.7 77 +7 +7 1021.0 996.6 +4.5 +17.0
03 12.07 штиль 0 10 км 8/0
[Ac As]
+5.1 +2.1 81 +4 +4 1022.2 997.8
06 12.07 штиль 0 10 км ясно +3.0 +0.6 84 +2 +2 1021.6 997.4
09 12.07 штиль 0 10 км ясно 0.0 -0.9 94 -1 -1 1020.3 996.0
12 12.07 СЗ 2 10 км ясно +1.2 -0.5 88 -2 -2 1021.4 996.8 -1.1 +7.4
15 12.07 С 3 12 км ясно +14.9 +1.2 39 +14 +21 1020.7 996.6
18 12.07 С 5 12 км ясно +20.0 +4.4 36 +20 +24 1016.3 992.4
21 12.07 СВ 3 12 км ясно +20.2 +4.8 36 +21 +21 комфорт 1015.5 991.4
00 13.07 СВ 1 10 км ясно +13.6 +6.6 63 +14 +14 1016.1 991.8 +1.2 +21.0
03 13.07 штиль 0 10 км ясно +5.2 +2.8 84 +4 +4 1017.2 993.2
06 13.07 штиль 0 10 км ясно +2.4 +0.8 89 +1 +1 1016.6 992.6
09 13.07 штиль 0 10 км ясно +0.6 -1.1 88 -1 -1 1015.0 991.0
12 13.07 СЗ 2 10 км ясно +2.0 -0.2 85 -1 -1 1016.5 992.2 0.0 +13.6
15 13.07 СВ 2 10 км ясно +17.4 +6.1 47 +18 +26 1017.0 993.0
18 13.07 СВ 5 10 км ясно +22.6 +6.3 35 +23 +27 комфорт 1013.4 989.7
21 13.07 С 3 10 км 3/0
[Ci]
+23.0 +7.5 37 +24 +24 комфорт 1012.4 988.6
00 14.07 штиль 0 10 км ясно +11.0 +5.9 71 +11 +11 1012.7 988.5 +2.0 +23.6
03 14.07 Ю 1 10 км ясно +8.0 +4.9 81 +7 +7 1012.3 988.6
06 14.07 штиль 0 10 км ясно +5.6 +1.6 75 +5 +5 1010.4 986.9
09 14.07 штиль 0 10 км ясно +3.8 +1.8 87 +3 +3 1008.4 984.9
12 14.07 штиль 0 10 км ясно +4.0 +2.5 90 +3 +4 1009.7 985.6 +2.0 +11.0
15 14.07 СВ 3 10 км ясно +18.2 +10.5 61 +19 +26 1008.4 984.8
18 14.07 С 5 10 км ясно +24.8 +8.7 36 +25 +30 комфорт 1005.1 981.8
21 14.07 штиль 0 12 км ясно +25.8 +11.6 41 +27 +27 жарко 1002.7 979.4
00 15.07 штиль 0 10 км ясно +15.0 +9.0 67 +15 +15 1004.7 980.9 +4.0 +26.7
03 15.07 З 1 10 км ясно +11.8 +7.5 75 +12 +12 1005.9 982.5
06 15.07 Ю 2 10 км ясно +10.9 +6.2 73 +10 +10 1005.6 982.5
09 15.07 Ю 4 10 км ясно +11.5 +6.2 70 +10 +10 1006.1 983.0
12 15.07 Ю 4 12 км ясно +14.3 +7.7 64 +13 +14 1010.3 986.8 +9.8 +15.0
15 15.07 Ю 5 10 км ясно +22.7 +4.4 30 +23 +27 комфорт 1012.8 989.4
18 15.07 Ю 6 10 км ясно +25.0 +7.1 32 +25 +28 комфорт 1011.5 988.2
21 15.07 ЮВ 4 10 км ясно +23.2 +7.3 36 +24 +24 комфорт 1012.3 989.0
00 16.07 ЮВ 2 10 км ясно +18.4 +7.0 47 +19 +19 1016.4 992.9 +14.0 +25.5
03 16.07 ЮВ 4 10 км 10/0
[Ac und]
+17.0 +1.4 35 +17 +17 1018.7 995.4
06 16.07 Ю 3 10 км 10/5 900 м
[Sc Ac As]
+15.8 -0.7 32 +15 +15 1018.8 995.6
09 16.07 Ю 2 10 км 10/5 900 м
[Sc Ac As]
+15.2 -0.7 34 +15 +15 1018.5 995.2

 

Местоположение метеостанции Santiago del Estero (Аргентина): широта -27.76 долгота -64.30 высота над уровнем моря 199 м.

В архиве по умолчанию представлена погода в Santiago del Estero за последнюю неделю. Архивные данные за месяц целиком и за предыдущие месяцы, начиная с января 2011 года, Вы можете получить, выбрав интересующий диапазон дат из раскрывающегося списка и нажав кнопку "Ввод!".


*Определитесь, кто Вы:
робот инопланетянин человек

Внимание! Время в таблицах - всемирное. Для получения местного времени необходимо прибавить поправку, которая в Santiago del Estero равна -3 ч.

Смотрите также архив погоды в соседних городах и на ближайших метеорологических станциях:

Погода в San Miguel de Tucuman (Аргентина) (128 км)
Погода в San Fernando del Valle de Catamarca (Аргентина) (171 км)
Погода в Villa de Maria del Rio Seco (Аргентина) (246 км)
Погода в La Rioja (Аргентина) (304 км)
Погода в Ceres (Аргентина) (329 км)
Погода в Salta (Аргентина) (344 км)
Погода в Chamical (Аргентина) (347 км)
Погода в San Salvador de Jujuy (Аргентина) (384 км)
Погода в Presidencia Roque Saenz Pena (Аргентина) (395 км)
Погода в Cordoba (Аргентина) (395 км)

Пояснения к столбцам:

Ветер - указаны скорость ветра в м/с - средняя за 10 мин, порывы в срок и между сроками (в фигурных скобках) и направление, откуда дует ветер: С - северный, СВ - северо-восточный, В - восточный, ЮВ - юго-восточный, Ю - южный, ЮЗ - юго-западный, З - западный, СЗ - северо-западный.
Видимость - горизонтальная дальность видимости в метрах или километрах. При видимости от 1 до 10 км при отсутствии осадков обычно наблюдается дымка, при ухудшении видимости до 1 км и менее - туман. В сухую погоду видимость может ухудшаться дымом, пылью или мглою.
Явления - указаны атмосферные явления, наблюдавшиеся в срок или в последний час перед сроком; фигурными скобками обозначены явления, наблюдавшиеся между сроками (за 1-3 часа до срока); квадратными скобками обозначены град или гололедные отложения с указанием их диаметра в мм.
Облачность - указаны через наклонную черту общая и нижняя облачность в баллах и высота нижней границы облаков в метрах; квадратными скобками обозначены формы облаков: Ci - перистые, Cs - перисто-слоистые, Cc - перисто-кучевые, Ac - высококучевые, As - высокослоистые, Sc - слоисто-кучевые, Ns - слоисто-дождевые, Cu - кучевые, Cb - кучево-дождевые. Подробнее классификацию облаков см. в Атласе облаков (PDF).
T - Температура воздуха - температура, измеренная на высоте 2 м над землей.
Td - Температура точки росы - температура, при понижении до которой содержащийся в воздухе водяной пар достигнет насыщения.
f - Относительная влажность воздуха - влажноcть воздуха, измеренная на высоте 2 м над землей.
Te - Эффективная температура - температура, которую ощущает одетый по сезону человек в тени. Характеристика душности погоды. При расчете учитывается влияние влажности воздуха и скорости ветра на теплоощущения человека.
Tes - Эффективная температура на солнце - температура, которую ощущает человек, с поправкой на солнечный нагрев. Характеристика знойности погоды. Зависит от высоты солнца над горизонтом, облачности и скорости ветра. Ночью, в пасмурную погоду, а также при ветре 12 м/с и более поправка равна нулю.
P - Атмосферное давление - приведенное к уровню моря атмосферное давление.
Po - Атмосферное давление - измеренное на уровне метеостанции атмосферное давление.
Tmin - Минимальная температура - минимум температуры воздуха на высоте 2 м над землей.
Tmax - Максимальная температура - максимум температуры воздуха на высоте 2 м над землей.
R - Количество осадков - Количество выпавших осадков за период времени, мм. При наведении курсора мыши на число - период времени, за который выпало указанное количество осадков.
R24 - Количество осадков - Количество выпавших осадков за 24 часа, мм.
S - Снежный покров - Высота снежного покрова, см. При наведении курсора мыши на число - состояние снежного покрова и степень покрытия местности в баллах.